CW4352 Weather Reports


Display with metric or nautical units.
time (UTC)temp
F
wind
direction
speed
MPH
gust
MPH
rain 1hr
in
rain 24hr
in
rain mn
in
humidity
%
barometer
mb
20260904023205 74 263 2.0 7.0 0.00 0.00 0.00 57 1013.8
20260904021705 74 263 2.0 3.0 0.00 0.00 0.00 58 1013.8
20260904021205 74 263 2.0 5.0 0.00 0.00 0.00 58 1013.8
20260904020205 74 263 2.0 3.0 0.00 0.00 0.00 58 1013.8
20260904014705 74 263 2.0 3.0 0.00 0.00 0.00 58 1013.8
20260904014204 74 263 2.0 3.0 0.00 0.00 0.00 58 1013.8
20260904013205 74 263 3.0 5.0 0.00 0.00 0.00 57 1013.8
20260904004705 75 263 2.0 5.0 0.00 0.00 0.00 57 1013.8
20260904001705 75 265 1.0 3.0 0.00 0.00 0.00 57 1014.1
20260903234205 76 266 5.0 7.0 0.00 0.00 0.00 54 1014.2
20260903233705 76 266 5.0 7.0 0.00 0.00 0.00 55 1014.2
20260903233205 76 266 3.0 6.0 0.00 0.00 0.00 54 1014.2
20260903231704 77 266 1.0 3.0 0.00 0.00 0.00 54 1014.2
20260903230706 77 266 2.0 3.0 0.00 0.00 0.00 54 1013.2
20260903224204 77 284 3.0 6.0 0.00 0.00 0.00 54 1014.1
20260903223203 77 284 2.0 5.0 0.00 0.00 0.00 53 1013.8
20260903221704 78 284 0.0 2.0 0.00 0.00 0.00 53 1013.8
20260903221204 78 284 0.0 3.0 0.00 0.00 0.00 52 1013.8
20260903220704 78 284 2.0 5.0 0.00 0.00 0.00 52 1013.8
20260903213704 78 298 3.0 6.0 0.00 0.00 0.00 52 1013.8
20260903213204 78 299 1.0 7.0 0.00 0.00 0.00 51 1013.7
20260903211203 79 299 3.0 6.0 0.00 0.00 0.00 50 1013.7
20260903204203 79 313 3.0 6.0 0.00 0.00 0.00 50 1013.7
20260903203204 79 0 2.0 5.0 0.00 0.00 0.00 50 1013.7
20260903201704 79 5 3.0 3.0 0.00 0.00 0.00 50 1013.7
20260903201204 79 5 1.0 3.0 0.00 0.00 0.00 51 1013.7
20260903200703 79 5 2.0 3.0 0.00 0.00 0.00 50 1013.4
20260903200204 79 5 1.0 3.0 0.00 0.00 0.00 50 1013.4
20260903194704 80 5 1.0 2.0 0.00 0.00 0.00 49 1013.4
20260903194203 80 5 1.0 2.0 0.00 0.00 0.00 48 1013.4
20260903190704 81 5 1.0 2.0 0.00 0.00 0.00 45 1013.2
20260903190204 82 5 1.0 2.0 0.00 0.00 0.00 45 1013.2
20260903180206 86 5 0.0 1.0 0.00 0.00 0.00 39 1012.7
20260903174207 87 5 2.0 3.0 0.00 0.00 0.00 36 1012.7
20260903173707 88 5 1.0 3.0 0.00 0.00 0.00 36 1012.7
20260903171707 89 5 2.0 3.0 0.00 0.00 0.00 34 1012.3
20260903171207 89 5 1.0 3.0 0.00 0.00 0.00 34 1012.3
20260903170707 90 5 2.0 3.0 0.00 0.00 0.00 33 1012.3
20260903163707 91 13 0.0 2.0 0.00 0.00 0.00 32 1012.3
20260903163206 90 13 0.0 1.0 0.00 0.00 0.00 32 1012.1
20260903161707 91 13 2.0 3.0 0.00 0.00 0.00 32 1012.1
20260903161207 91 13 1.0 3.0 0.00 0.00 0.00 32 1012.1
20260903160707 91 9 2.0 3.0 0.00 0.00 0.00 32 1012.1
20260903154706 91 5 0.0 3.0 0.00 0.00 0.00 31 1012.7
20260903153207 91 9 1.0 3.0 0.00 0.00 0.00 32 1012.7
20260903151206 91 333 2.0 3.0 0.00 0.00 0.00 31 1012.7
20260903150707 91 333 1.0 3.0 0.00 0.00 0.00 31 1012.7
20260903144707 91 335 2.0 5.0 0.00 0.00 0.00 31 1013.0
20260903144206 91 335 2.0 5.0 0.00 0.00 0.00 30 1013.0
20260903143707 91 324 2.0 7.0 0.00 0.00 0.00 31 1013.0
20260903140707 91 0 1.0 5.0 0.00 0.00 0.00 32 1013.0
20260903140206 91 9 1.0 6.0 0.00 0.00 0.00 33 1013.0
20260903134707 92 34 0.0 2.0 0.00 0.00 0.00 32 1013.0
20260903134206 91 47 1.0 3.0 0.00 0.00 0.00 31 1013.1
20260903133707 91 10 0.0 3.0 0.00 0.00 0.00 33 1013.2
20260903131709 91 49 2.0 3.0 0.00 0.00 0.00 34 1013.2
20260903123207 91 55 1.0 9.0 0.00 0.00 0.00 34 1013.5
20260903121206 90 22 2.0 3.0 0.00 0.00 0.00 34 1013.5
20260903120207 90 40 1.0 5.0 0.00 0.00 0.00 36 1013.5
20260903113706 89 65 1.0 8.0 0.00 0.00 0.00 35 1013.7
20260903111706 89 48 2.0 5.0 0.00 0.00 0.00 37 1014.3
20260903111206 89 45 2.0 5.0 0.00 0.00 0.00 37 1014.3
20260903110207 89 31 2.0 5.0 0.00 0.00 0.00 38 1014.3
20260903104706 88 30 1.0 3.0 0.00 0.00 0.00 38 1014.3
20260903103207 88 26 1.0 5.0 0.00 0.00 0.00 39 1014.3
20260903101707 86 19 2.0 5.0 0.00 0.00 0.00 42 1014.8
20260903100207 86 15 2.0 5.0 0.00 0.00 0.00 43 1014.8
20260903094706 85 22 2.0 3.0 0.00 0.00 0.00 43 1015.0
20260903094207 85 33 2.0 3.0 0.00 0.00 0.00 45 1015.0
20260903093707 85 355 2.0 3.0 0.00 0.00 0.00 45 1015.0
20260903093206 85 11 1.0 5.0 0.00 0.00 0.00 45 1015.0
20260903091707 85 42 2.0 3.0 0.00 0.00 0.00 45 1015.0
20260903091207 85 25 2.0 3.0 0.00 0.00 0.00 45 1014.9
20260903090206 84 35 1.0 3.0 0.00 0.00 0.00 45 1014.7
20260903084707 84 53 1.0 3.0 0.00 0.00 0.00 45 1014.7
20260903084206 84 65 2.0 5.0 0.00 0.00 0.00 46 1014.7
20260903083206 84 89 2.0 5.0 0.00 0.00 0.00 46 1014.7
20260903081206 82 89 1.0 5.0 0.00 0.00 0.00 47 1014.7
20260903080707 82 89 2.0 5.0 0.00 0.00 0.00 48 1014.7
20260903080206 82 89 2.0 5.0 0.00 0.00 0.00 49 1014.7
20260903073207 79 89 2.0 5.0 0.00 0.00 0.00 53 1014.6
20260903071206 77 89 0.0 5.0 0.00 0.00 0.00 56 1014.4
20260903070706 77 89 2.0 5.0 0.00 0.00 0.00 56 1014.4
20260903064706 74 89 0.0 1.0 0.00 0.00 0.00 61 1014.3
20260903063706 74 89 0.0 2.0 0.00 0.00 0.00 62 1014.3
20260903063207 73 89 1.0 3.0 0.00 0.00 0.00 64 1014.3
20260903060206 71 89 1.0 3.0 0.00 0.00 0.00 66 1014.3
20260903054706 71 89 1.0 3.0 0.00 0.00 0.00 65 1014.3
20260903051706 70 89 0.0 2.0 0.00 0.00 0.00 65 1013.8
20260903050706 70 89 2.0 3.0 0.00 0.00 0.00 65 1013.8
20260903044706 70 89 2.0 5.0 0.00 0.00 0.00 65 1013.6
20260903043706 70 89 2.0 5.0 0.00 0.00 0.00 65 1013.6
20260903043207 70 89 2.0 5.0 0.00 0.00 0.00 65 1013.6
20260903041706 70 89 3.0 5.0 0.00 0.00 0.00 65 1013.2
20260903040706 69 89 2.0 3.0 0.00 0.00 0.00 66 1013.2
20260903034706 70 89 0.0 0.0 0.00 0.00 0.00 65 1013.2
20260903034206 71 89 0.0 0.0 0.00 0.00 0.00 65 1013.2
20260903033707 71 89 0.0 2.0 0.00 0.00 0.00 64 1013.4
20260903031706 71 89 2.0 5.0 0.00 0.00 0.00 64 1013.4
20260903031206 71 89 3.0 6.0 0.00 0.00 0.00 64 1013.4
20260903030707 71 89 4.0 7.0 0.00 0.00 0.00 65 1013.4
20260903030206 71 89 1.0 6.0 0.00 0.00 0.00 65 1013.4
20260903024706 71 89 3.0 7.0 0.00 0.00 0.00 64 1013.4
20260903024206 71 89 5.0 7.0 0.00 0.00 0.00 64 1013.4